Tracking 30692 objects as of 16-Jun-2025
HD Live streaming from Space Station
objects crossing your sky now

STARLINK-32436

Track STARLINK-32436 now!
10-day predictions


NORAD ID: 61215
Int'l Code: 2024-171R
Perigee: 481.5 km
Apogee: 483.2 km
Inclination: 53.2 °
Period: 94.1 minutes
Semi major axis: 6853 km
RCS: Unknown
Launch date: September 20, 2024
Source: United States (US)
Launch site: AIR FORCE WESTERN TEST RANGE (AFWTR)
Your satellite tracking list
Your tracking list is empty




NASA's NSSDC Master Catalog

Two Line Element Set (TLE):
1 61215U 24171R   25166.88163461 -.00000042  00000-0  10695-4 0  9999
2 61215  53.1603 121.4135 0001281  77.6001 282.5143 15.30195308 41527
Source of the keplerian elements: AFSPC